Regional Weather Roundup
Issued by NWS Wakefield, VA

Home | Current Version | Previous Version | Text Only | Print | Product List | Glossary Off
Versions: 1 2 3 4 5 6 7 8 9 10 11 12 13 14 15 16 17 18 19 20 21 22 23 24 25 26 27 28 29 30 31 32 33 34 35 36 37 38 39 40 41 42 43 44 45 46 47 48 49 50

000
ASUS41 KAKQ 041015
RWRAKQ

REGIONAL WEATHER ROUNDUP
NATIONAL WEATHER SERVICE WAKEFIELD VA
600 AM EDT TUE AUG 04 2015

Note: "fair" indicates few or no clouds below 12,000 feet with no
significant weather and/or obstructions to visibility. * = Denotes
station may not report precipitation (e.g., rain,snow,etc.),
thunder or fog.

VAZ042-051-052>054-056-041100-
NORTHERN VIRGINIA

CITY           SKY/WX    TMP DP  RH WIND       PRES   REMARKS
WASH NATIONAL  CLOUDY    77  60  55 NW6       29.91S
DULLES         CLOUDY    69  61  75 CALM      29.91S
FORT BELVOIR   MOCLDY    73  64  72 CALM      29.90R
QUANTICO       NOT AVBL
FREDERICKSBRG* MOCLDY    77  69  78 CALM      29.90R
STAFFORD*      MOCLDY    70  67  88 CALM      29.95R
WARRENTON      MOCLDY    71  68  89 CALM      29.91R
CULPEPER*      MOCLDY    68  65  92 CALM      29.92R
MANASSAS*      MOCLDY    72  64  78 N3        29.91R
LEESBURG*      CLOUDY    68  68 100 CALM      29.92R
WINCHESTER     PTCLDY    68  66  94 SW5       29.92R
FRONT ROYAL*   FAIR      68  63  83 CALM      29.91R
LURAY*         FAIR      68  64  88 CALM      29.93R
$$

VAZ048-049-060>072-079>083-041100-
CENTRAL AND SOUTH CENTRAL VIRGINIA

CITY           SKY/WX    TMP DP  RH WIND       PRES   REMARKS
RICHMOND       MOCLDY    75  70  84 S12       29.94R
CHESTERFIELD*  FAIR      75  61  60 S6        29.96R
PETERSBURG*    CLEAR     74  74 100 S3        29.96R
HANOVER        PTCLDY    76  70  82 S7        29.94R
TAPPAHANNOCK*  PTCLDY    75  69  80 CALM      29.93R
QUINTON*       FAIR      75  71  86 S7        29.93R
CHARLOTTSVILLE PTCLDY    74  63  68 S3        29.92R
GORDONSVILLE*  FAIR      70  64  83 W3        29.92R
ORANGE*        MOCLDY    72  64  78 CALM      29.93R
LOUISA*        MOCLDY    72  66  83 CALM      29.92R
BUMPASS*       FAIR      72  68  89 MISG      29.92R
FARMVILLE*     PTCLDY    73  72  96 S6        29.93R
CREWE*         FAIR     N/A N/A N/A S3        29.95R
FORT PICKETT*  FAIR      73  69  88 S9        29.96R
CHASE CITY*    FAIR      75  74  95 S5        29.97R
CLARKSVILLE*   FAIR      72  70  94 S10       29.97R
SOUTH HILL*    PTCLDY    71  70  96 S7        30.03S
LAWRENCEVILLE* FAIR      72  72 100 S3        29.97S
EMPORIA*       CLEAR     72  70  94 CALM      29.99R
$$

VAZ088>098-041100-
SOUTHEAST VIRGINIA

CITY           SKY/WX    TMP DP  RH WIND       PRES   REMARKS
NORFOLK        PTCLDY    76  72  87 SW12      29.97R
VIRGINIA BEACH PTCLDY    79  73  82 SW12      29.97R
NORFOLK NAVAL  MOCLDY    75  72  90 SW8       29.99R
WEST POINT*    MOCLDY    79  71  77 S7        29.95R
SALUDA*        FAIR      76  72  86 SW9G16    29.93R
NEWPORT NEWS   MOCLDY    76  73  91 SW8       29.97R
LANGLEY AFB    MOCLDY    76  73  91 SW9       29.97R
FORT EUSTIS    PTCLDY    76  76 100 VRB3      29.95R
WILLIAMSBURG*  PTCLDY    79  73  83 SW6       29.97R
HR EXEC AP*    FAIR      73  70  88 SW7       30.00R
FRANKLIN*      CLEAR     73  72  96 SW3       29.99R
WAKEFIELD      CLEAR     74  71  91 VRB5      29.97R
$$

VAZ020-022-025-037-045-041100-
WEST CENTRAL AND SOUTHWEST VIRGINIA

CITY           SKY/WX    TMP DP  RH WIND       PRES   REMARKS
STAUNTON*      CLEAR     64  60  87 CALM      29.97S
WAYNESBORO*    FAIR      75  59  57 SW8       29.96S
HOT SPRINGS VA PTCLDY    66  52  60 W17       30.07S
LYNCHBURG      PTCLDY    67  64  90 S5        29.96R
DANVILLE       CLEAR     72  68  87 S5        29.97R
SOUTH BOSTON*  FAIR      72  69  91 SW6       29.97R
MARTINSVILLE   CLEAR     64  64 100 CALM      30.00R FOG
ROANOKE        CLOUDY    75  60  59 NW3       29.99R
BLACKSBURG     MOCLDY    65  63  93 CALM      30.06R
DUBLIN*          N/A     68  62  80 SW5       30.04R
MARION*        PTCLDY    64  60  88 SW5       30.09R
HILLSVILLE*    PTCLDY    64  57  80 SW5       30.05R
RICHLANDS*     FAIR      65  61  88 CALM      30.06F
WISE*          PTCLDY    66  64  94 CALM      30.08R
ABINGDON*      CLOUDY    66  62  85 CALM      30.05R
$$

MDZ021>025-VAZ099-100-041100-
SOUTHERN MARYLAND AND THE DELMARVA PENINSULA

CITY           SKY/WX    TMP DP  RH WIND       PRES   REMARKS
PATUXENT RIVER MOCLDY    76  71  85 SW10      29.90R
BAY BRIDGE APT   N/A     79  66  65 NW12G23   29.91R
LEONARDTOWN    PTCLDY    75  70  83 CALM      29.92R
DOVER          PTCLDY    76  76 100 SW6       29.89R
GEORGETOWN     PTCLDY    77  74  90 SW6       29.91R
EASTON         PTCLDY    80  74  82 SW5       29.93R
CAMBRIDGE      CLEAR     79  72  78 S6        29.90R
SALISBURY      PTCLDY    77  74  90 SW9       29.92R
OCEAN CITY     CLEAR     78  74  87 SW10      29.92R
WALLOPS ISLAND PTCLDY    77  75  93 SW9       29.94R
ACCOMACK*      PTCLDY    79  79 100 SW15G21   29.94R
$$

NCZ012>017-030>032-041100-
NORTH CENTRAL AND EASTERN NORTH CAROLINA

CITY           SKY/WX    TMP DP  RH WIND       PRES   REMARKS
ROANOKE RAPIDS FAIR      72  70  94 SW3       29.98R
RALEIGH        MOCLDY    73  72  94 CALM      29.99S
ELIZABETH CITY MOCLDY    79  76  90 SW8       29.98R
AHOSKIE*       CLEAR     72  71  96 CALM      29.99R
EDENTON*         N/A     77  75  93 SW8       29.99R
CURRITUCK*     CLOUDY    79  75  86 SW5       29.99R
KILL DEVIL HLS PTCLDY    79  76  90 SW6       29.98R
MANTEO         CLEAR     79  77  94 SW15      29.99R
CAPE HATTERAS  MOCLDY    79  75  87 SW8       30.00R
TARBORO*         N/A     73  72  95 CALM      29.99R
GOLDSBORO      CLEAR     75  75  99 VRB1      29.97R
WASHINGTON     PTCLDY    76  75  97 CALM      29.98S
GREENVILLE     CLOUDY    77  77 100 CALM      30.00R FOG
NEW BERN       CLEAR     78  75  90 S3        30.00R
WILMINGTON     CLOUDY    79  75  87 S7        29.96R
$$

VAZ048-041100-
ELSEWHERE

CITY           SKY/WX    TMP DP  RH WIND       PRES   REMARKS
HARRISBURG PA  CLOUDY    71  65  81 CALM      29.87R
BALTIMORE      CLOUDY    68  64  87 NE3       29.88F
ANNAPOLIS      MOCLDY    78  63  59 NW12      29.89R
ANDREWS AFB    CLOUDY    75  60  58 N7        29.90R
PHILADELPHIA   CLOUDY    76  67  73 S6        29.88F
HENDERSON NC   CLEAR     72  68  88 SW7       29.99R
GREENSBORO     PTCLDY    72  70  93 S9        29.98R
ROCKY MOUNT    PTCLDY    73  71  93 CALM      29.98R
$$

VAZ100-041100-
MARINE

STATION/POSITION TIME  TEMP    WIND        PRES    WAVE   SWELL
                       AIR SEA DIR/SP/G            HT/PER HT/PER
                 (UTC) (F)     (DEG/KT/KT) (MB)    (FT/S) (FT/S)
BRANDYWINE LGT   0900   77 76  230/ 14/ 15 1011.7R
CAPE MAY NJ      0900   76 76  210/  6/  9 1011.3R
LEWES DE         0900   78 73  220/  8/ 10 1011.4R
15NM E FENWICK I 0950   78 79  210/ 21/ 25 1012.7R   6/ 7   2/11
OCEAN-CITY-INLET 0900   79 76  240/ 12/ 17 1011.4R
WACHAPREAGUE VA  0918   77 83  240/  6/ 10 1013.6R
GOOSES REEF MD   1000   80 82  230/ 12/ 14 1013.0R
COVE POINT MD    0900   78     240/ 12/ 15 1012.4R
SOLOMONS ISLAND  0900      83                N/A
BISHOPS HEAD MD  0900   81 81  220/ 16/ 23 1011.1R
PINEY POINT MD   0900          230/ 18/ 19   N/A
POTOMAC MD       1000   80 82  230/ 17/ 19 1011.5R   2/ 3
CAMBRIDGE MD     0900   78 84  180/  3/  5 1011.1R
LEWISETTA VA     0900   78 84  240/ 10/ 14 1012.2R
RAPPAHANNOCK LGT 0900          220/ 23/ 24 1013.5R
STINGRAY PT      1000   79 83  230/ 17/ 21 1013.6R   2/ 3
YORK RVR RNG VA  0900   78     250/ 14/ 18 1013.2R
YORKTOWN VA      0900   77 84  240/ 14/ 19 1013.2R
JAMESTOWN VA     1000   76 85  220/  8/ 10   N/A
DOMINION TERM VA 0900   78     230/ 18/ 21 1013.3R
KIPTOPEKE VA     0900      81  240/ 16/ 20   N/A
CHES BAY BRIDGE  0900   77 80  200/ 15/ 17 1013.4R
CAPE HENRY VA    0900   77     210/ 11/ 16   N/A
CHESAPEAKE LGHT  0900   77     220/ 22/ 24 1014.1R
WILLOUBY STN VA  0900   77     230/ 14/ 16 1014.9R
CAPE HENRY BUOY  0928      78                N/A     4/ 5   2/11
1ST LANDING BUOY 1000      79              1014.8R   1/ 3
CAPE CHARLES BUO 0926      76                N/A     3/ 6   2/11
OFFSHORE WE BUOY 0911      81                N/A     5/ 5   2/ 7
64NM E OF VA BCH 0950   81 80  220/ 16/ 19 1014.8R   6/ 7   2/11
DUCK PIER NC     0900   80 63  210/ 13/ 15 1013.9R
44100 DUCK FRF   0924      78                N/A     3/ 5
44056 DUCK FRF   0911      67                N/A     2/ 5   2/11
OREGON INLET NC  0900   80 80  200/ 15/ 17 1015.0R
HATTERAS NC      0900   79 78  200/  7/ 10 1015.2R
DIAMOND SHLS NC  0950   83 84  200/ 17/ 21 1016.0R   4/ 5   2/ 8


USA.gov is the U.S. government's official web portal to all federal, state and local government web resources and services.